Regional Weather Roundup
Issued by NWS

Home | Current Version | Previous Version | Graphics & Text | Print | Product List | Glossary On
Versions: 1 2 3 4 5 6 7 8 9 10 11 12 13 14 15 16 17 18 19 20 21 22 23 24 25 26 27 28 29 30 31 32 33 34 35 36 37 38 39 40 41 42 43 44 45 46 47 48 49 50
000
ASUS43 KBIS 290931
RWRND
NORTH DAKOTA REGIONAL WEATHER ROUNDUP
NATIONAL WEATHER SERVICE EASTERN NORTH DAKOTA/GRAND FORKS ND
400 AM CDT MON MAY 29 2017

  NOTE: "FAIR" INDICATES FEW OR NO CLOUDS BELOW 12,000 FEET WITH NO
  SIGNIFICANT WEATHER AND/OR OBSTRUCTIONS TO VISIBILITY.

NDZ001>003-009>011-017-291000-
...NORTHWEST NORTH DAKOTA...

CITY           SKY/WX    TMP DP  RH WIND       PRES   REMARKS
WILLISTON      FAIR      46  38  73 NW9       30.10R
MINOT          MOCLDY    52  43  71 NW20G28   29.97S
MINOT AFB      CLOUDY    51  43  75 NW20G28   29.97R
$$

NDZ018>021-031>035-040>046-291000-
...SOUTHWEST NORTH DAKOTA...

CITY           SKY/WX    TMP DP  RH WIND       PRES   REMARKS
BISMARCK       FAIR      50  42  74 NW13G23   29.99R
DICKINSON      FAIR      38  34  85 NW7       30.06S WCI  33
GARRISON         N/A     47  42  83 NW16      29.99R
HETTINGER      FAIR      33  30  88 W6        30.09S WCI  28
$$

NDZ004>008-012>016-024-026-027-054-291000-
...NORTHEAST NORTH DAKOTA...

CITY           SKY/WX    TMP DP  RH WIND       PRES   REMARKS
GRAND FORKS    RAIN      51  50  96 NW15      29.80S
GRAND FORKS AF LGT RAIN  50  50 100 N14       29.82R
DEVILS LAKE    CLOUDY    52  45  77 NW18      29.87S
$$

NDZ022-023-025-028>030-036>039-047>053-291000-
...SOUTHEAST NORTH DAKOTA...

CITY           SKY/WX    TMP DP  RH WIND       PRES   REMARKS
JAMESTOWN      CLOUDY    50  46  86 NW14      29.87S
FARGO          CLOUDY    52  49  89 NW13      29.81R
WAHPETON       CLOUDY    50  45  81 NW16      29.82S
$$




USA.gov is the U.S. government's official web portal to all federal, state and local government web resources and services.